Weather History for NZAA - February, 2013

Change the Weather History Date:

Saturday, February 23, 2013

  Actual Average Record
Temperature  
Mean Temperature 70 °F -  
Max Temperature 78 °F 72 °F 77 °F (2015)
Min Temperature 62 °F 60 °F 62 °F (2014)
Cooling Degree Days 5    
Growing Degree Days 20 (Base 50)    
Moisture  
Dew Point 57 °F    
Average Humidity 68    
Maximum Humidity 88    
Minimum Humidity 36    
Precipitation  
Precipitation 0.00 in - - ()
Sea Level Pressure  
Sea Level Pressure 30.14 in    
Wind  
Wind Speed 4 mph ()    
Max Wind Speed 9 mph    
Max Gust Speed -    
Visibility 6.2 miles    
Events      
Averages and records for this station are not official NWS values.
T = Trace of Precipitation, MM = Missing Value Source: Averaged Metar Reports

Daily Weather History Graph

Daily Weather History Graph

Search for Another Location

Airport or City:

Trip Planner

Search our weather history database for the weather conditions in past years. The results will help you decide how hot, cold, wet, or windy it might be!

Date:

Astronomy

Feb. 23, 2013 Rise Set
Actual Time 6:59 AM NZDT 8:08 PM NZDT
Civil Twilight 6:32 AM NZDT 8:34 PM NZDT
Nautical Twilight 6:00 AM NZDT 9:06 PM NZDT
Astronomical Twilight 5:27 AM NZDT 9:39 PM NZDT
Moon 6:12 PM NZDT (2/23) 4:07 AM NZDT (2/23)
Length of Visible Light 14h 02m
Length of Day
13h 08m
Waxing Gibbous, 91% of the Moon is Illuminated
Feb 23
Waxing Gibbous
Feb 26
Full
Mar 5
Last Quarter
Mar 12
New
Mar 20
First Quarter

Hourly Weather History & Observations

Time (NZDT) Temp. Dew Point Humidity Pressure Visibility Wind Dir Wind Speed Gust Speed Precip Events Conditions
12:00 AM 68.0 °F 62.6 °F 83% 30.09 in 6.2 mi WNW 4.6 mph - N/A   Mostly Cloudy
1:00 AM 66.2 °F 60.8 °F 83% 30.09 in 6.2 mi NNW 3.5 mph - N/A   Partly Cloudy
2:00 AM 66.2 °F 62.6 °F 88% 30.09 in 6.2 mi NE 3.5 mph - N/A   Scattered Clouds
3:00 AM 64.4 °F 59.0 °F 83% 30.09 in 6.2 mi East 3.5 mph - N/A   Scattered Clouds
4:00 AM 62.6 °F 59.0 °F 88% 30.09 in 6.2 mi NE 3.5 mph - N/A   Scattered Clouds
5:00 AM 62.6 °F 59.0 °F 88% 30.09 in 6.2 mi East 2.3 mph - N/A   Scattered Clouds
6:00 AM 62.6 °F 59.0 °F 88% 30.12 in 6.2 mi SE 4.6 mph - N/A   Scattered Clouds
7:00 AM 62.6 °F 59.0 °F 88% 30.12 in 6.2 mi SE 3.5 mph - N/A   Mostly Cloudy
8:00 AM 62.6 °F 55.4 °F 77% 30.15 in 6.2 mi SE 6.9 mph - N/A   Mostly Cloudy
9:00 AM 64.4 °F 55.4 °F 73% 30.15 in 6.2 mi SSE 5.8 mph - N/A   Mostly Cloudy
10:00 AM 68.0 °F 55.4 °F 64% 30.18 in 6.2 mi SSE 4.6 mph - N/A   Mostly Cloudy
11:00 AM 69.8 °F 53.6 °F 56% 30.18 in 6.2 mi South 6.9 mph - N/A   Scattered Clouds
12:00 PM 71.6 °F 50.0 °F 46% 30.18 in 6.2 mi SW 6.9 mph - N/A   Scattered Clouds
1:00 PM 73.4 °F 51.8 °F 47% 30.18 in 6.2 mi SW 6.9 mph - N/A   Scattered Clouds
2:00 PM 75.2 °F 53.6 °F 47% 30.15 in - SW 8.1 mph - N/A   Clear
3:00 PM 77.0 °F 51.8 °F 41% 30.15 in - WSW 4.6 mph - N/A   Clear
4:00 PM 77.0 °F 51.8 °F 41% 30.12 in - SW 8.1 mph - N/A   Clear
5:00 PM 78.8 °F 50.0 °F 36% 30.12 in - WSW 4.6 mph - N/A   Clear
6:00 PM 77.0 °F 51.8 °F 41% 30.15 in - North 8.1 mph - N/A   Clear
7:00 PM 73.4 °F 51.8 °F 47% 30.15 in - NNW 6.9 mph - N/A   Clear
8:00 PM 69.8 °F 60.8 °F 73% 30.15 in - WSW 9.2 mph - N/A   Clear
9:00 PM 68.0 °F 60.8 °F 78% 30.18 in 6.2 mi SW 8.1 mph - N/A   Unknown
10:00 PM 66.2 °F 60.8 °F 83% 30.21 in - SW 5.8 mph - N/A   Clear
11:00 PM 66.2 °F 60.8 °F 83% 30.24 in - SW 3.5 mph - N/A   Clear